TimeEDT,TemperatureF,Dew PointF,Humidity,Sea Level PressureIn,VisibilityMPH,Wind Direction,Wind SpeedMPH,Gust SpeedMPH,PrecipitationIn,Events,Conditions,WindDirDegrees,DateUTC
12:51 AM,24.1,14.0,65,29.95,10.0,West,6.9,-,N/A,,Clear,280,2013-03-17 04:51:00
1:51 AM,23.0,12.0,63,29.96,10.0,West,10.4,-,N/A,,Clear,280,2013-03-17 05:51:00
2:51 AM,21.9,10.9,63,29.99,10.0,West,6.9,-,N/A,,Clear,280,2013-03-17 06:51:00
3:51 AM,21.0,10.9,65,30.00,10.0,West,9.2,-,N/A,,Clear,270,2013-03-17 07:51:00
4:51 AM,19.9,9.0,62,30.01,10.0,WNW,4.6,-,N/A,,Clear,300,2013-03-17 08:51:00
5:51 AM,19.0,9.0,65,30.01,10.0,West,4.6,-,N/A,,Clear,280,2013-03-17 09:51:00
6:51 AM,19.9,10.0,65,30.06,10.0,West,8.1,-,N/A,,Mostly Cloudy,270,2013-03-17 10:51:00
7:51 AM,21.0,10.9,65,30.09,10.0,West,4.6,-,N/A,,Mostly Cloudy,260,2013-03-17 11:51:00
8:51 AM,25.0,12.9,60,30.10,10.0,West,11.5,-,N/A,,Scattered Clouds,280,2013-03-17 12:51:00
9:51 AM,26.1,10.0,51,30.13,10.0,WNW,15.0,19.6,N/A,,Scattered Clouds,290,2013-03-17 13:51:00
10:51 AM,28.0,10.0,47,30.14,10.0,West,12.7,20.7,N/A,,Scattered Clouds,270,2013-03-17 14:51:00
11:51 AM,30.9,7.0,37,30.14,10.0,West,11.5,-,N/A,,Scattered Clouds,280,2013-03-17 15:51:00
12:51 PM,33.1,3.9,29,30.14,10.0,NW,16.1,23.0,N/A,,Scattered Clouds,320,2013-03-17 16:51:00
1:51 PM,34.0,5.0,30,30.15,10.0,West,18.4,27.6,N/A,,Mostly Cloudy,280,2013-03-17 17:51:00
2:51 PM,34.0,3.9,28,30.15,10.0,WNW,18.4,23.0,N/A,,Mostly Cloudy,300,2013-03-17 18:51:00
3:51 PM,35.1,5.0,28,30.16,10.0,WNW,17.3,24.2,N/A,,Scattered Clouds,290,2013-03-17 19:51:00
4:51 PM,34.0,5.0,30,30.17,10.0,West,16.1,26.5,N/A,,Scattered Clouds,280,2013-03-17 20:51:00
5:51 PM,33.1,5.0,31,30.18,10.0,NW,16.1,21.9,N/A,,Scattered Clouds,320,2013-03-17 21:51:00
6:51 PM,30.9,5.0,33,30.22,10.0,WNW,16.1,-,N/A,,Scattered Clouds,290,2013-03-17 22:51:00
7:51 PM,28.9,5.0,36,30.25,10.0,WNW,13.8,23.0,N/A,,Scattered Clouds,290,2013-03-17 23:51:00
8:51 PM,28.0,3.9,36,30.29,10.0,WNW,9.2,-,N/A,,Partly Cloudy,290,2013-03-18 00:51:00
9:51 PM,26.1,5.0,41,30.31,10.0,WNW,10.4,-,N/A,,Partly Cloudy,300,2013-03-18 01:51:00
10:51 PM,25.0,5.0,43,30.33,10.0,North,4.6,-,N/A,,Partly Cloudy,360,2013-03-18 02:51:00
11:51 PM,24.1,3.9,42,30.35,10.0,NNE,4.6,-,N/A,,Clear,20,2013-03-18 03:51:00